SL-16 DEB, 22330

Orbit data source: Space-Track

SL-16 DEB, 22330 is space debris in LEO originally from a launch on Fri, 25 Dec 1992 UTC launched from the Tyuratam Missile And Space Complex (TTMTR). Debris objects in space refer to the collection of defunct objects orbiting the Earth. Examples of debris include non-operational satellites, rocket bodies, and fragments generated from explosions, collisions, or faulty payload assembly.

Loading next visibility...
Identifier
22330, 1992-093T
Orbit
LEO
Country
Flag of CISCIS
Related business
Manufacturer
Unknown
Mission
Spacecraft
Bus & Motor
Unknown
Mass
Unknown
Launch date (UTC)
1992-12-25 (33 years ago)
Launch vehicle
Unknown
Launch site
Tyuratam Missile And Space Complex (TTMTR)
Object type
Payload
Rocket body
Debris
Shape & HBR
Unknown shape, 0.3 m
Radar Cross Section
Small (<0.1 m²)

Expand to show TLE details & history
Last TLE update: 10 hours ago

TLE from 10 hours ago
0 SL-16 DEB
1 22330U 92093T   26126.90106858  .00000958  00000-0  54381-3 0  9993
2 22330  70.4145 303.6277 0109484  74.7382  39.4574 14.09695834708307
Epoch: 2026-05-06T21:37Z
TLE epoch observation values (Epoch: 2026-05-06T21:37:32.325Z)
Latitude
58.74602°
Longitude
-101.18292°
Altitude
808.924 km
Speed
7.486 km/s
True Right ascension
05h 51m 49s
True Declination
58° 35' 40"
Sunlit
Object was in daylight at epoch
Visualization orbit readout
Latitude
Unknown
Longitude
Unknown
Altitude
Unknown
Speed
Unknown
Apparent Right ascension
Unknown
Apparent Declination
Unknown
Sunlit
N/A
Visualization observer readout
Local Sidereal Time
15:26:56
Azimuth
Unknown
Elevation
Unknown
Doppler factor
Unknown
Orbital elements
Apogee altitude
937.629 km
Perigee altitude
779.172 km
Semi-major axis
7,236.538 km
Eccentricity
0.01095
Inclination
70.4145°
RAAN
303.6277°
Arg. of periapsis
74.7382°
True anomaly
40.26318°
Mean anomaly
39.4574°
Eccentric anomaly
39.85944°
Mean motion
3.52571 °/min
Orbital period
102.11 mins
BSTAR
0.00054381
Loading maneuver chart data...
Computing Atmospheric mass density...
Loading historical data...
Loading historical data...
Loading historical data...
Loading historical data...
Loading historical data...
Loading historical data...
Loading historical data...

Documentation

Showing up to 5 results
|